DLH8LJ EDDF-EGLL

Flight info

Callsign DLH8LJ
Flight time N/A
Altitude 36000
Route OBOKA2E/07C OBOKA Z29 TORNU DCT ABNED L980 LOGAN
Aircraft A320/M-SDE3FGHIRWY/LB1

Departure

Time 2026-04-14 14:07
Airport Frankfurt Main Airport (EDDF)

Arrival

Time N/A
Airport London Heathrow Airport (EGLL)
Time Latitude Longitude Altitude Speed Heading
2026-04-14 13:26 50.04466 8.56485 360 ft 0 kts 159°
2026-04-14 13:56 50.04477 8.56479 364 ft 2 kts 159°
2026-04-14 13:56 50.04493 8.56469 363 ft 2 kts 159°
2026-04-14 13:56 50.04509 8.56459 362 ft 2 kts 171°
2026-04-14 13:56 50.04525 8.56461 359 ft 2 kts 160°
2026-04-14 13:57 50.04538 8.56445 361 ft 2 kts 88°
2026-04-14 13:57 50.04533 8.56420 361 ft 2 kts 50°
2026-04-14 13:57 50.04523 8.56399 361 ft 2 kts 73°
2026-04-14 13:57 50.04517 8.56375 359 ft 2 kts 60°
2026-04-14 13:58 50.04510 8.56357 362 ft 0 kts 62°
2026-04-14 14:00 50.04513 8.56358 356 ft 1 kts 32°
2026-04-14 14:00 50.04512 8.56339 364 ft 4 kts 240°
2026-04-14 14:01 50.04484 8.56256 361 ft 13 kts 249°
2026-04-14 14:01 50.04457 8.56127 360 ft 12 kts 251°
2026-04-14 14:01 50.04418 8.56033 356 ft 9 kts 207°
2026-04-14 14:01 50.04361 8.56044 362 ft 8 kts 163°
2026-04-14 14:02 50.04312 8.56075 362 ft 8 kts 155°
2026-04-14 14:02 50.04290 8.56138 355 ft 6 kts 82°
2026-04-14 14:02 50.04284 8.56209 354 ft 10 kts 136°
2026-04-14 14:02 50.04195 8.56266 354 ft 15 kts 159°
2026-04-14 14:03 50.04120 8.56244 354 ft 12 kts 237°
2026-04-14 14:03 50.04092 8.56132 357 ft 10 kts 252°
2026-04-14 14:03 50.04056 8.55981 352 ft 23 kts 250°
2026-04-14 14:03 50.03982 8.55673 349 ft 34 kts 249°
2026-04-14 14:04 50.03910 8.55364 349 ft 30 kts 250°
2026-04-14 14:04 50.03838 8.55067 349 ft 25 kts 249°
2026-04-14 14:04 50.03782 8.54835 348 ft 21 kts 249°
2026-04-14 14:04 50.03729 8.54613 351 ft 23 kts 250°
2026-04-14 14:05 50.03672 8.54371 346 ft 22 kts 249°
2026-04-14 14:05 50.03610 8.54306 341 ft 10 kts 157°
2026-04-14 14:05 50.03548 8.54344 347 ft 9 kts 162°
2026-04-14 14:05 50.03503 8.54369 350 ft 10 kts 160°
2026-04-14 14:06 50.03497 8.54451 350 ft 13 kts 70°
2026-04-14 14:06 50.03578 8.54781 349 ft 64 kts 68°
2026-04-14 14:06 50.03808 8.55742 351 ft 125 kts 69°
2026-04-14 14:06 50.04166 8.57284 406 ft 168 kts 69°
2026-04-14 14:07 50.04529 8.58954 1105 ft 163 kts 69°
2026-04-14 14:07 50.04899 8.60594 1839 ft 160 kts 67°
2026-04-14 14:07 50.05364 8.62251 2245 ft 177 kts 52°
2026-04-14 14:07 50.06372 8.63459 2511 ft 195 kts 18°
2026-04-14 14:08 50.07769 8.63615 2942 ft 209 kts 357°
2026-04-14 14:08 50.09237 8.63494 3690 ft 214 kts 357°
2026-04-14 14:08 50.10727 8.63378 4305 ft 221 kts 358°
2026-04-14 14:08 50.12344 8.63261 4707 ft 244 kts 358°
2026-04-14 14:09 50.14080 8.63140 5383 ft 254 kts 358°
2026-04-14 14:09 50.15857 8.63020 6239 ft 257 kts 358°
2026-04-14 14:09 50.17659 8.62899 7073 ft 261 kts 358°
2026-04-14 14:09 50.19489 8.62777 7875 ft 265 kts 358°
2026-04-14 14:10 50.21353 8.62649 8632 ft 272 kts 357°
2026-04-14 14:10 50.23273 8.62515 9315 ft 280 kts 356°
2026-04-14 14:10 50.25247 8.62379 10020 ft 288 kts 356°
2026-04-14 14:10 50.27288 8.62241 10531 ft 302 kts 355°
2026-04-14 14:11 50.29439 8.61815 10738 ft 323 kts 342°
2026-04-14 14:11 50.31529 8.60306 10961 ft 340 kts 323°
2026-04-14 14:11 50.33229 8.57704 11512 ft 345 kts 304°
2026-04-14 14:11 50.34315 8.54350 12190 ft 348 kts 289°
2026-04-14 14:12 50.35097 8.50802 12907 ft 351 kts 288°
2026-04-14 14:12 50.35886 8.47174 13642 ft 353 kts 288°
2026-04-14 14:12 50.36677 8.43505 14277 ft 358 kts 288°
2026-04-14 14:12 50.37342 8.39746 14883 ft 361 kts 279°
2026-04-14 14:13 50.37523 8.35814 15520 ft 363 kts 268°
2026-04-14 14:13 50.37197 8.31872 16073 ft 369 kts 258°
2026-04-14 14:13 50.36455 8.27977 16584 ft 375 kts 253°
2026-04-14 14:13 50.35669 8.24068 17181 ft 378 kts 253°
2026-04-14 14:14 50.34878 8.20119 17796 ft 381 kts 254°
2026-04-14 14:14 50.34082 8.16146 18388 ft 384 kts 254°
2026-04-14 14:14 50.33278 8.12138 18914 ft 387 kts 253°
2026-04-14 14:14 50.32465 8.08106 19444 ft 390 kts 253°
2026-04-14 14:15 50.31645 8.04045 19988 ft 392 kts 253°
2026-04-14 14:15 50.30819 7.99962 20525 ft 395 kts 253°
2026-04-14 14:15 50.30150 7.95795 21042 ft 396 kts 263°
2026-04-14 14:15 50.30006 7.91485 21538 ft 398 kts 274°
2026-04-14 14:16 50.30411 7.87210 22044 ft 399 kts 285°
2026-04-14 14:16 50.31349 7.83121 22528 ft 400 kts 295°
2026-04-14 14:16 50.32514 7.79150 23011 ft 403 kts 295°
2026-04-14 14:17 50.35016 7.71316 23900 ft 407 kts 304°
2026-04-14 14:17 50.36804 7.67871 24269 ft 409 kts 315°
2026-04-14 14:17 50.38990 7.65002 24644 ft 411 kts 326°
2026-04-14 14:17 50.41487 7.62825 25013 ft 413 kts 335°
2026-04-14 14:18 50.44126 7.61020 25372 ft 415 kts 336°
2026-04-14 14:18 50.46778 7.59205 25731 ft 416 kts 335°
2026-04-14 14:18 50.49435 7.57378 26085 ft 418 kts 335°
2026-04-14 14:18 50.51205 7.56157 26309 ft 419 kts 335°
2026-04-14 14:19 50.53884 7.54309 26653 ft 421 kts 335°
2026-04-14 14:19 50.56507 7.52261 26984 ft 422 kts 328°
2026-04-14 14:19 50.58981 7.49755 27317 ft 423 kts 327°
2026-04-14 14:19 50.61452 7.47214 27640 ft 425 kts 327°
2026-04-14 14:20 50.63929 7.44668 28009 ft 424 kts 327°
2026-04-14 14:20 50.66402 7.42127 28403 ft 424 kts 327°
2026-04-14 14:20 50.68871 7.39589 28721 ft 425 kts 327°
2026-04-14 14:20 50.71331 7.36994 29006 ft 426 kts 323°
2026-04-14 14:21 50.73568 7.33895 29280 ft 429 kts 314°
2026-04-14 14:21 50.75467 7.30249 29538 ft 431 kts 306°
2026-04-14 14:21 50.76987 7.26147 29784 ft 435 kts 299°
2026-04-14 14:21 50.78366 7.21895 30058 ft 435 kts 299°
2026-04-14 14:22 50.79751 7.17634 30375 ft 434 kts 299°
2026-04-14 14:22 50.81130 7.13398 30670 ft 433 kts 299°